sat.trackr.live / text

‹ back to catalog

STARLINK-3058

NORAD 49138 · 2021-082J

PAYLOAD ACTIVE UNKNOWN

§ Identity

Operator
Country
US
Launch date
2021-09-14
Launch site
AFWTR
Launch vehicle
Mass (kg)
RCS (m²)

Purposes: comms

External: N2YO · Heavens-Above · Gunter

§ Orbital elements

Epoch: 2026-05-25T03:41:56.454432Z

Period
96.11 min
Inclination
69.9991°
Eccentricity
0.0003879
Mean motion
14.98338049 rev/d
Perigee alt
569.3 km
Apogee alt
574.7 km
Semi-major
6,950.2 km
B*
3.3329e-5
RAAN
101.6686°
Arg perigee
268.3568°
Mean anomaly
91.7147°
Rev number
25,743

§ Raw data

STARLINK-30581 49138U 21082J   26145.15412563  .00000305  00000+0  33329-4 0  99942 49138  69.9991 101.6686 0003879 268.3568  91.7147 14.98338049257432

JSON: /api/v1/satellites/49138 · /tle

For live sub-satellite position, see the globe view (requires WebGL).

§ Visibility from observer

Set your observer location to see the next 7 days of passes ≥ 10°. The values pass through the URL so the page stays shareable.

No JS? Fill the form by hand. The geolocation button needs JavaScript.